| time (UTC) | temp C | wind direction | speed KPH | gust KPH | rain 1hr cm | rain 24hr cm | rain mn cm | humidity % | barometer mb |
| 20260507093503 | 7 | 182 | 3.2 | 8.0 | 0.00 | 0.00 | 0.00 | 70 | 1012.7 |
| 20260507092618 | 7 | 199 | 3.2 | 9.7 | 0.00 | 0.00 | 0.00 | 68 | 1012.8 |
| 20260507091617 | 7 | 190 | 3.2 | 9.7 | 0.00 | 0.00 | 0.00 | 67 | 1013.0 |
| 20260507090503 | 7 | 173 | 3.2 | 11.3 | 0.00 | 0.00 | 0.00 | 67 | 1013.1 |
| 20260507085617 | 7 | 160 | 1.6 | 8.0 | 0.00 | 0.00 | 0.00 | 65 | 1013.3 |
| 20260507084503 | 7 | 172 | 1.6 | 9.7 | 0.00 | 0.00 | 0.00 | 64 | 1013.3 |
| 20260507083503 | 7 | 191 | 3.2 | 8.0 | 0.00 | 0.00 | 0.00 | 63 | 1013.4 |
| 20260507082503 | 7 | 221 | 3.2 | 14.5 | 0.00 | 0.00 | 0.00 | 62 | 1013.5 |
| 20260507081503 | 7 | 212 | 3.2 | 11.3 | 0.00 | 0.00 | 0.00 | 61 | 1013.6 |
| 20260507080506 | 7 | 210 | 3.2 | 12.9 | 0.00 | 0.00 | 0.00 | 61 | 1013.8 |
| 20260507075503 | 7 | 212 | 3.2 | 12.9 | 0.00 | 0.00 | 0.00 | 60 | 1014.0 |
| 20260507074618 | 7 | 186 | 1.6 | 8.0 | 0.00 | 0.00 | 0.00 | 59 | 1014.1 |
| 20260507073506 | 7 | 187 | 1.6 | 6.4 | 0.00 | 0.00 | 0.00 | 58 | 1014.2 |
| 20260507072503 | 7 | 197 | 1.6 | 6.4 | 0.00 | 0.00 | 0.00 | 57 | 1014.3 |
| 20260507071618 | 7 | 169 | 1.6 | 3.2 | 0.00 | 0.00 | 0.00 | 57 | 1014.4 |
| 20260507070504 | 7 | 165 | 1.6 | 6.4 | 0.00 | 0.00 | 0.00 | 57 | 1014.5 |
| 20260507065503 | 6 | 195 | 1.6 | 6.4 | 0.00 | 0.00 | 0.00 | 58 | 1014.6 |
| 20260507064503 | 6 | 186 | 0.0 | 6.4 | 0.00 | 0.00 | 0.00 | 60 | 1014.8 |
| 20260507063502 | 5 | 175 | 0.0 | 4.8 | 0.00 | 0.00 | 0.00 | 60 | 1014.9 |
| 20260507062502 | 5 | 182 | 0.0 | 1.6 | 0.00 | 0.00 | 0.00 | 60 | 1014.9 |
| 20260507061503 | 6 | 178 | 0.0 | 1.6 | 0.00 | 0.00 | 0.00 | 59 | 1014.9 |
| 20260507060618 | 6 | 178 | 0.0 | 0.0 | 0.00 | 0.00 | 0.00 | 56 | 1015.0 |
| 20260507055503 | 6 | 178 | 0.0 | 3.2 | 0.00 | 0.00 | 0.00 | 56 | 1015.1 |
| 20260507054503 | 6 | 180 | 1.6 | 3.2 | 0.00 | 0.00 | 0.00 | 58 | 1015.2 |
| 20260507053502 | 6 | 207 | 0.0 | 3.2 | 0.00 | 0.00 | 0.00 | 60 | 1015.2 |
| 20260507052503 | 5 | 251 | 0.0 | 0.0 | 0.00 | 0.00 | 0.00 | 63 | 1015.2 |
| 20260507051618 | 5 | 252 | 0.0 | 0.0 | 0.00 | 0.00 | 0.00 | 64 | 1015.2 |
| 20260507050503 | 5 | 262 | 0.0 | 0.0 | 0.00 | 0.00 | 0.00 | 63 | 1015.4 |
| 20260507045503 | 5 | 296 | 0.0 | 0.0 | 0.00 | 0.00 | 0.00 | 65 | 1015.3 |
| 20260507044503 | 5 | 296 | 0.0 | 0.0 | 0.00 | 0.00 | 0.00 | 63 | 1015.3 |
| 20260507043506 | 5 | 296 | 0.0 | 0.0 | 0.00 | 0.00 | 0.00 | 61 | 1015.5 |
| 20260507042503 | 5 | 296 | 0.0 | 0.0 | 0.00 | 0.00 | 0.00 | 60 | 1015.6 |
| 20260507041503 | 5 | 296 | 0.0 | 0.0 | 0.00 | 0.00 | 0.00 | 61 | 1015.7 |
| 20260507040503 | 5 | 296 | 0.0 | 0.0 | 0.00 | 0.00 | 0.00 | 59 | 1015.8 |
| 20260507035506 | 5 | 296 | 0.0 | 0.0 | 0.00 | 0.00 | 0.00 | 60 | 1015.7 |
| 20260507034503 | 5 | 296 | 0.0 | 0.0 | 0.00 | 0.00 | 0.00 | 60 | 1015.9 |
| 20260507033503 | 6 | 296 | 0.0 | 0.0 | 0.00 | 0.00 | 0.00 | 60 | 1015.9 |
| 20260507032503 | 6 | 296 | 0.0 | 0.0 | 0.00 | 0.00 | 0.00 | 56 | 1016.0 |
| 20260507031617 | 6 | 296 | 0.0 | 0.0 | 0.00 | 0.00 | 0.00 | 55 | 1016.0 |
| 20260507030503 | 7 | 296 | 0.0 | 0.0 | 0.00 | 0.00 | 0.00 | 55 | 1015.9 |
| 20260507025503 | 7 | 296 | 0.0 | 0.0 | 0.00 | 0.00 | 0.00 | 52 | 1015.9 |
| 20260507024618 | 7 | 296 | 0.0 | 0.0 | 0.00 | 0.00 | 0.00 | 51 | 1016.0 |
| 20260507023503 | 8 | 296 | 0.0 | 0.0 | 0.00 | 0.00 | 0.00 | 45 | 1015.9 |
| 20260507022503 | 8 | 296 | 0.0 | 0.0 | 0.00 | 0.00 | 0.00 | 44 | 1015.7 |
| 20260507021618 | 8 | 296 | 0.0 | 0.0 | 0.00 | 0.00 | 0.00 | 46 | 1015.7 |
| 20260507020503 | 9 | 296 | 0.0 | 0.0 | 0.00 | 0.00 | 0.00 | 39 | 1015.6 |
| 20260507015503 | 10 | 296 | 0.0 | 0.0 | 0.00 | 0.00 | 0.00 | 37 | 1015.7 |
| 20260507014503 | 10 | 296 | 0.0 | 0.0 | 0.00 | 0.00 | 0.00 | 35 | 1015.7 |
| 20260507013503 | 11 | 296 | 0.0 | 0.0 | 0.00 | 0.00 | 0.00 | 32 | 1015.5 |
| 20260507012504 | 12 | 296 | 0.0 | 0.0 | 0.00 | 0.00 | 0.00 | 30 | 1015.6 |
| 20260507011618 | 12 | 292 | 0.0 | 4.8 | 0.00 | 0.00 | 0.00 | 27 | 1015.5 |
| 20260507010503 | 13 | 277 | 1.6 | 4.8 | 0.00 | 0.00 | 0.00 | 25 | 1015.6 |
| 20260507005503 | 13 | 261 | 1.6 | 8.0 | 0.00 | 0.00 | 0.00 | 25 | 1015.6 |
| 20260507004503 | 13 | 291 | 0.0 | 6.4 | 0.00 | 0.00 | 0.00 | 25 | 1015.6 |
| 20260507003503 | 13 | 294 | 3.2 | 12.9 | 0.00 | 0.00 | 0.00 | 25 | 1015.5 |
| 20260507002506 | 14 | 277 | 1.6 | 6.4 | 0.00 | 0.00 | 0.00 | 25 | 1015.7 |
| 20260507001503 | 14 | 298 | 4.8 | 11.3 | 0.00 | 0.00 | 0.00 | 24 | 1015.8 |
| 20260507000503 | 14 | 323 | 4.8 | 12.9 | 0.00 | 0.00 | 0.00 | 25 | 1015.8 |
| 20260506235503 | 15 | 307 | 6.4 | 19.3 | 0.00 | 0.00 | 0.00 | 24 | 1016.0 |
| 20260506234503 | 15 | 279 | 4.8 | 16.1 | 0.00 | 0.00 | 0.00 | 24 | 1016.1 |
| 20260506233503 | 15 | 292 | 4.8 | 14.5 | 0.00 | 0.00 | 0.00 | 24 | 1016.1 |
| 20260506232503 | 15 | 300 | 6.4 | 16.1 | 0.00 | 0.00 | 0.00 | 23 | 1016.1 |
| 20260506231503 | 15 | 315 | 6.4 | 17.7 | 0.00 | 0.00 | 0.00 | 24 | 1016.2 |
| 20260506230503 | 15 | 314 | 8.0 | 17.7 | 0.00 | 0.00 | 0.00 | 23 | 1016.3 |
| 20260506225503 | 15 | 328 | 4.8 | 16.1 | 0.00 | 0.00 | 0.00 | 25 | 1016.3 |
| 20260506224618 | 15 | 313 | 6.4 | 19.3 | 0.00 | 0.00 | 0.00 | 25 | 1016.4 |
| 20260506223503 | 15 | 315 | 4.8 | 12.9 | 0.00 | 0.00 | 0.00 | 24 | 1016.5 |
| 20260506222618 | 15 | 295 | 6.4 | 17.7 | 0.00 | 0.00 | 0.00 | 24 | 1016.6 |
| 20260506221503 | 15 | 284 | 4.8 | 17.7 | 0.00 | 0.00 | 0.00 | 25 | 1016.6 |
| 20260506220503 | 15 | 280 | 6.4 | 14.5 | 0.00 | 0.00 | 0.00 | 25 | 1016.8 |
| 20260506215503 | 15 | 304 | 6.4 | 19.3 | 0.00 | 0.00 | 0.00 | 25 | 1016.8 |
| 20260506214503 | 14 | 289 | 8.0 | 25.7 | 0.00 | 0.00 | 0.00 | 24 | 1016.9 |
| 20260506213503 | 15 | 305 | 8.0 | 17.7 | 0.00 | 0.00 | 0.00 | 25 | 1017.1 |
| 20260506212503 | 15 | 330 | 6.4 | 19.3 | 0.00 | 0.00 | 0.00 | 25 | 1017.2 |
| 20260506211504 | 15 | 279 | 3.2 | 11.3 | 0.00 | 0.00 | 0.00 | 25 | 1017.2 |
| 20260506210503 | 15 | 270 | 8.0 | 17.7 | 0.00 | 0.00 | 0.00 | 25 | 1017.4 |
| 20260506205503 | 15 | 285 | 6.4 | 17.7 | 0.00 | 0.00 | 0.00 | 25 | 1017.5 |
| 20260506204503 | 15 | 315 | 8.0 | 19.3 | 0.00 | 0.00 | 0.00 | 25 | 1017.6 |
| 20260506203503 | 15 | 312 | 6.4 | 17.7 | 0.00 | 0.00 | 0.00 | 26 | 1017.7 |
| 20260506202503 | 15 | 326 | 6.4 | 16.1 | 0.00 | 0.00 | 0.00 | 27 | 1017.8 |
| 20260506201503 | 15 | 325 | 8.0 | 20.9 | 0.00 | 0.00 | 0.00 | 25 | 1017.8 |
| 20260506200506 | 15 | 277 | 4.8 | 17.7 | 0.00 | 0.00 | 0.00 | 26 | 1017.8 |
| 20260506195621 | 15 | 304 | 9.7 | 27.4 | 0.00 | 0.00 | 0.00 | 26 | 1018.1 |
| 20260506194503 | 14 | 307 | 9.7 | 22.5 | 0.00 | 0.00 | 0.00 | 26 | 1018.2 |
| 20260506193503 | 14 | 281 | 8.0 | 19.3 | 0.00 | 0.00 | 0.00 | 25 | 1018.2 |
| 20260506192504 | 15 | 316 | 8.0 | 20.9 | 0.00 | 0.00 | 0.00 | 25 | 1018.2 |
| 20260506191502 | 14 | 306 | 6.4 | 19.3 | 0.00 | 0.00 | 0.00 | 27 | 1018.3 |
| 20260506190503 | 13 | 327 | 9.7 | 17.7 | 0.00 | 0.00 | 0.00 | 27 | 1018.2 |
| 20260506185503 | 13 | 330 | 6.4 | 22.5 | 0.00 | 0.00 | 0.00 | 29 | 1018.3 |
| 20260506184503 | 14 | 324 | 8.0 | 17.7 | 0.00 | 0.00 | 0.00 | 26 | 1018.3 |
| 20260506183503 | 13 | 301 | 6.4 | 22.5 | 0.00 | 0.00 | 0.00 | 28 | 1018.5 |
| 20260506182507 | 13 | 269 | 8.0 | 25.7 | 0.00 | 0.00 | 0.00 | 27 | 1018.6 |
| 20260506181617 | 13 | 328 | 11.3 | 24.1 | 0.00 | 0.00 | 0.00 | 27 | 1018.5 |
| 20260506180503 | 14 | 312 | 9.7 | 24.1 | 0.00 | 0.00 | 0.00 | 28 | 1018.6 |
| 20260506175503 | 13 | 308 | 9.7 | 22.5 | 0.00 | 0.00 | 0.00 | 28 | 1018.8 |
| 20260506174618 | 13 | 290 | 8.0 | 27.4 | 0.00 | 0.00 | 0.00 | 29 | 1018.9 |
| 20260506173503 | 13 | 286 | 4.8 | 14.5 | 0.00 | 0.00 | 0.00 | 30 | 1019.0 |
| 20260506172503 | 12 | 273 | 6.4 | 17.7 | 0.00 | 0.00 | 0.00 | 34 | 1019.3 |
| 20260506171618 | 12 | 291 | 4.8 | 17.7 | 0.00 | 0.00 | 0.00 | 32 | 1019.4 |
| 20260506170503 | 12 | 299 | 4.8 | 14.5 | 0.00 | 0.00 | 0.00 | 32 | 1019.4 |
| 20260506165504 | 12 | 244 | 6.4 | 19.3 | 0.00 | 0.00 | 0.00 | 33 | 1019.5 |
| 20260506164503 | 12 | 266 | 8.0 | 17.7 | 0.00 | 0.00 | 0.00 | 31 | 1019.4 |
| 20260506163503 | 12 | 285 | 6.4 | 19.3 | 0.00 | 0.00 | 0.00 | 33 | 1019.4 |
| 20260506162503 | 12 | 302 | 6.4 | 14.5 | 0.00 | 0.00 | 0.00 | 33 | 1019.4 |
| 20260506161503 | 11 | 345 | 8.0 | 20.9 | 0.00 | 0.00 | 0.00 | 32 | 1019.5 |
| 20260506160504 | 11 | 330 | 8.0 | 24.1 | 0.00 | 0.00 | 0.00 | 34 | 1019.5 |
| 20260506155503 | 11 | 318 | 8.0 | 16.1 | 0.00 | 0.00 | 0.00 | 34 | 1019.5 |
| 20260506154503 | 11 | 304 | 6.4 | 20.9 | 0.00 | 0.00 | 0.00 | 35 | 1019.5 |
| 20260506153503 | 11 | 297 | 4.8 | 16.1 | 0.00 | 0.00 | 0.00 | 36 | 1019.4 |
| 20260506152621 | 10 | 271 | 3.2 | 11.3 | 0.00 | 0.00 | 0.00 | 37 | 1019.5 |
| 20260506151503 | 10 | 316 | 6.4 | 16.1 | 0.00 | 0.00 | 0.00 | 36 | 1019.5 |
| 20260506150506 | 10 | 326 | 4.8 | 14.5 | 0.00 | 0.00 | 0.00 | 36 | 1019.5 |
| 20260506145618 | 10 | 315 | 4.8 | 12.9 | 0.00 | 0.00 | 0.00 | 37 | 1019.4 |
| 20260506144503 | 10 | 303 | 3.2 | 12.9 | 0.00 | 0.00 | 0.00 | 39 | 1019.6 |
| 20260506143503 | 10 | 323 | 3.2 | 8.0 | 0.00 | 0.00 | 0.00 | 39 | 1019.6 |
| 20260506142504 | 9 | 321 | 6.4 | 12.9 | 0.00 | 0.00 | 0.00 | 39 | 1019.7 |
| 20260506141503 | 8 | 305 | 3.2 | 9.7 | 0.00 | 0.00 | 0.00 | 41 | 1019.5 |
| 20260506140503 | 8 | 340 | 4.8 | 8.0 | 0.00 | 0.00 | 0.00 | 41 | 1019.3 |
| 20260506135503 | 8 | 6 | 4.8 | 9.7 | 0.00 | 0.00 | 0.00 | 42 | 1019.2 |
| 20260506134503 | 7 | 354 | 6.4 | 12.9 | 0.00 | 0.00 | 0.00 | 44 | 1019.2 |
| 20260506133618 | 7 | 336 | 4.8 | 12.9 | 0.00 | 0.00 | 0.00 | 47 | 1019.1 |
| 20260506132617 | 6 | 335 | 6.4 | 12.9 | 0.00 | 0.00 | 0.00 | 48 | 1019.0 |
| 20260506131503 | 6 | 337 | 6.4 | 14.5 | 0.00 | 0.00 | 0.00 | 50 | 1018.8 |
| 20260506130618 | 6 | 342 | 4.8 | 9.7 | 0.00 | 0.00 | 0.00 | 51 | 1018.7 |
| 20260506125503 | 5 | 320 | 3.2 | 6.4 | 0.00 | 0.00 | 0.00 | 52 | 1018.7 |
| 20260506124618 | 5 | 299 | 1.6 | 4.8 | 0.00 | 0.00 | 0.00 | 54 | 1018.7 |
| 20260506123503 | 4 | 315 | 1.6 | 4.8 | 0.00 | 0.00 | 0.00 | 57 | 1018.5 |
| 20260506122503 | 3 | 330 | 1.6 | 6.4 | 0.00 | 0.00 | 0.00 | 60 | 1018.3 |
| 20260506121503 | 2 | 337 | 0.0 | 1.6 | 0.00 | 0.00 | 0.00 | 68 | 1018.3 |
| 20260506120618 | 2 | 340 | 0.0 | 0.0 | 0.00 | 0.00 | 0.00 | 73 | 1018.0 |
| 20260506115503 | 1 | 340 | 0.0 | 0.0 | 0.00 | 0.00 | 0.00 | 72 | 1017.8 |
| 20260506114618 | 1 | 340 | 0.0 | 0.0 | 0.00 | 0.00 | 0.00 | 70 | 1017.7 |
| 20260506113503 | 2 | 340 | 0.0 | 0.0 | 0.00 | 0.00 | 0.00 | 68 | 1017.6 |
| 20260506112618 | 2 | 340 | 0.0 | 0.0 | 0.00 | 0.00 | 0.00 | 67 | 1017.5 |
| 20260506111503 | 2 | 340 | 0.0 | 0.0 | 0.00 | 0.00 | 0.00 | 66 | 1017.4 |
| 20260506110504 | 2 | 340 | 0.0 | 0.0 | 0.00 | 0.00 | 0.00 | 62 | 1017.5 |
| 20260506105618 | 3 | 340 | 0.0 | 0.0 | 0.00 | 0.00 | 0.00 | 61 | 1017.4 |
| 20260506104503 | 3 | 340 | 0.0 | 0.0 | 0.00 | 0.00 | 0.00 | 58 | 1017.4 |
| 20260506103503 | 3 | 340 | 0.0 | 0.0 | 0.00 | 0.00 | 0.00 | 56 | 1017.3 |
| 20260506102503 | 3 | 340 | 0.0 | 0.0 | 0.00 | 0.00 | 0.00 | 54 | 1017.2 |
| 20260506101503 | 4 | 340 | 0.0 | 0.0 | 0.00 | 0.00 | 0.00 | 54 | 1017.2 |
| 20260506100618 | 4 | 344 | 0.0 | 0.0 | 0.00 | 0.00 | 0.00 | 54 | 1017.1 |
| 20260506095502 | 4 | 343 | 0.0 | 3.2 | 0.00 | 0.00 | 0.00 | 54 | 1017.0 |
| 20260506094503 | 5 | 346 | 1.6 | 3.2 | 0.00 | 0.00 | 0.00 | 52 | 1017.0 |